Flag for U.S.A. Weather past 2 weeks in Hopkinsville, Kentucky, U.S.A.

Now
35 °F

Fog.


Feels Like: 32 °F
Forecast: 29 / 42 °F
Wind: 3 mph from Northwest

Location: Fort Campbell U. S. Army Airfield

Current Time: Mar 1, 2015 at 10:41:31 PM

Latest Report: Mar 1, 2015 at 9:58 PM


Visibility: 5 mi

Pressure: 30.41 "Hg

Humidity: 96%

Dew point: 33 °F

Location of HopkinsvilleLocation

Historic Weather in Hopkinsville — Graph

°F

Hopkinsville temperature yesterday

Maximum temperature yesterday: 36 °F (at 6:58 PM)
Minimum temperature yesterday: 22 °F (at 2:58 AM)
Average temperature yesterday: 29 °F

Past Weeks' High & Low Weather Summary

 TemperatureHumidityPressure
High47 °F (Mar 1, 2:58 PM)100% (Feb 21, 2:04 AM)30.66 "Hg (Feb 21, 2:04 AM)
Low-7 °F (Feb 19, 4:58 AM)33% (Feb 15, 2:58 PM)29.83 "Hg (Feb 21, 11:58 AM)
Average23 °F70%30.26 "Hg
* Reported Feb 14 9:02 PM — Mar 1 9:04 PM, Hopkinsville, Weather by CustomWeather, © 2015

Note: Actual official high and low records may vary slightly from our data, if they occured in-between our weather recording intervals... More about our weather records

Advertising

Hopkinsville weather history for previous 24 hours

 ConditionsComfort  
Time TempWeatherWind HumidityBarometerVisibility
9:04 PM
Sun, Mar 1
36 °FFog.5 mph93%30.36 "Hg4 mi
8:58 PM35 °FFog.5 mph97%30.38 "Hg3 mi
7:58 PM37 °FFog.5 mph97%30.35 "Hg2 mi
6:58 PM38 °FFog.7 mph97%30.35 "Hg3 mi
5:58 PM39 °FFog.10 mph96%30.33 "Hg5 mi
4:58 PM43 °FFog.9 mph100%30.32 "Hg3 mi
4:01 PM46 °FFog.7 mph93%30.29 "Hg2 mi
2:58 PM47 °FLow clouds.7 mph96%30.32 "Hg9 mi
1:58 PM44 °FFog.6 mph97%30.32 "Hg4 mi
12:58 PM44 °FFog.6 mph96%30.34 "Hg4 mi
11:58 AM42 °FFog.5 mph96%30.36 "Hg6 mi
11:00 AM39 °FDrizzle. Mostly cloudy.3 mph93%30.36 "Hg7 mi
10:58 AM39 °FLow clouds.5 mph95%30.38 "Hg8 mi
9:58 AM36 °FLight rain. Low clouds.1 mph91%30.40 "Hg10 mi
8:58 AM36 °FLight rain. Low clouds.2 mphN/A30.41 "Hg5 mi
7:58 AM35 °FDrizzle. Overcast.2 mph80%30.39 "Hg10 mi
6:58 AM35 °FOvercast.6 mph79%30.37 "Hg10 mi
5:58 AM35 °FOvercast.3 mph70%30.37 "Hg10 mi
4:58 AM35 °FOvercast.3 mph70%30.38 "Hg10 mi
3:58 AM35 °FMostly cloudy.5 mph70%30.38 "Hg10 mi
2:58 AM35 °FMostly cloudy.2 mph70%30.39 "Hg10 mi
1:58 AM35 °FOvercast.2 mph67%30.39 "Hg10 mi
12:58 AM34 °FOvercast.5 mph74%30.39 "Hg10 mi
11:58 PM
Sat, Feb 28
34 °FPassing clouds.6 mph76%30.40 "Hg10 mi
10:58 PM35 °FOvercast.3 mph65%30.43 "Hg10 mi
Weather by CustomWeather, © 2015

See weather overviewHow to use our weather pages